TimeCDT,TemperatureF,Dew PointF,Humidity,Sea Level PressureIn,VisibilityMPH,Wind Direction,Wind SpeedMPH,Gust SpeedMPH,PrecipitationIn,Events,Conditions,WindDirDegrees,DateUTC
1:35 AM,50.0,39.2,66,29.57,10.0,West,15.0,25.3,N/A,,Overcast,280,2012-10-19 06:35:00
1:55 AM,50.0,39.2,66,29.57,10.0,West,8.1,20.7,N/A,,Overcast,270,2012-10-19 06:55:00
2:15 AM,50.0,39.2,66,29.57,10.0,West,10.4,20.7,N/A,,Overcast,280,2012-10-19 07:15:00
2:35 AM,50.0,39.2,66,29.57,10.0,West,9.2,19.6,N/A,,Overcast,260,2012-10-19 07:35:00
2:55 AM,50.0,39.2,66,29.57,10.0,West,6.9,-,N/A,,Overcast,270,2012-10-19 07:55:00
3:15 AM,50.0,39.2,66,29.57,10.0,West,13.8,24.2,N/A,,Overcast,280,2012-10-19 08:15:00
3:35 AM,50.0,41.0,71,29.57,10.0,West,11.5,19.6,N/A,,Overcast,280,2012-10-19 08:35:00
3:55 AM,50.0,39.2,66,29.57,10.0,West,6.9,20.7,N/A,,Overcast,270,2012-10-19 08:55:00
4:15 AM,50.0,41.0,71,29.57,10.0,West,12.7,25.3,N/A,,Overcast,270,2012-10-19 09:15:00
4:35 AM,48.2,41.0,76,29.57,10.0,West,9.2,26.5,N/A,,Overcast,270,2012-10-19 09:35:00
4:55 AM,48.2,41.0,76,29.57,10.0,West,16.1,25.3,N/A,,Overcast,280,2012-10-19 09:55:00
5:15 AM,48.2,41.0,76,29.57,10.0,West,8.1,18.4,N/A,Rain,Light Rain,270,2012-10-19 10:15:00
5:35 AM,48.2,41.0,76,29.57,10.0,West,8.1,-,N/A,,Overcast,270,2012-10-19 10:35:00
5:55 AM,48.2,41.0,76,29.58,10.0,West,8.1,-,N/A,,Overcast,270,2012-10-19 10:55:00
6:15 AM,48.2,41.0,76,29.58,9.0,West,6.9,-,N/A,Rain,Light Rain,260,2012-10-19 11:15:00
6:35 AM,46.4,41.0,81,29.58,10.0,West,9.2,16.1,N/A,,Overcast,280,2012-10-19 11:35:00
6:55 AM,46.4,41.0,81,29.58,10.0,West,5.8,-,N/A,,Overcast,260,2012-10-19 11:55:00
7:15 AM,46.4,42.8,87,29.59,10.0,West,6.9,-,N/A,,Mostly Cloudy,260,2012-10-19 12:15:00
7:35 AM,46.4,42.8,87,29.59,10.0,West,4.6,-,N/A,,Overcast,260,2012-10-19 12:35:00
7:55 AM,46.4,42.8,87,29.59,10.0,West,8.1,-,N/A,Rain,Light Rain,280,2012-10-19 12:55:00
8:15 AM,46.4,42.8,87,29.60,10.0,West,6.9,-,N/A,Rain,Light Rain,280,2012-10-19 13:15:00
8:35 AM,46.4,42.8,87,29.60,10.0,West,9.2,-,N/A,Rain,Light Rain,270,2012-10-19 13:35:00
8:55 AM,48.2,42.8,82,29.60,10.0,WNW,18.4,27.6,N/A,,Overcast,290,2012-10-19 13:55:00
9:15 AM,46.4,44.6,93,29.61,10.0,NW,12.7,19.6,N/A,,Mostly Cloudy,310,2012-10-19 14:15:00
9:35 AM,46.4,42.8,87,29.62,6.0,WNW,13.8,24.2,N/A,Rain,Light Rain,290,2012-10-19 14:35:00
9:55 AM,48.2,42.8,82,29.63,10.0,WNW,18.4,27.6,N/A,,Mostly Cloudy,290,2012-10-19 14:55:00
10:15 AM,48.2,41.0,76,29.63,10.0,WNW,16.1,28.8,N/A,,Mostly Cloudy,290,2012-10-19 15:15:00
10:35 AM,50.0,41.0,71,29.64,10.0,WNW,17.3,24.2,N/A,,Overcast,300,2012-10-19 15:35:00
10:55 AM,50.0,41.0,71,29.64,10.0,WNW,23.0,28.8,N/A,,Overcast,300,2012-10-19 15:55:00
11:15 AM,50.0,41.0,71,29.66,10.0,NW,11.5,24.2,N/A,,Overcast,310,2012-10-19 16:15:00
11:35 AM,48.2,42.8,82,29.66,6.0,WNW,16.1,25.3,N/A,,Haze,300,2012-10-19 16:35:00
11:55 AM,50.0,41.0,71,29.67,10.0,WNW,17.3,26.5,N/A,,Overcast,290,2012-10-19 16:55:00
12:15 PM,50.0,41.0,71,29.68,10.0,WNW,13.8,21.9,N/A,,Overcast,290,2012-10-19 17:15:00
12:35 PM,50.0,41.0,71,29.68,10.0,WNW,15.0,24.2,N/A,,Overcast,300,2012-10-19 17:35:00
12:55 PM,50.0,41.0,71,29.69,10.0,WNW,12.7,25.3,N/A,,Overcast,300,2012-10-19 17:55:00
1:15 PM,50.0,41.0,71,29.69,9.0,WNW,12.7,27.6,N/A,,Overcast,290,2012-10-19 18:15:00
1:35 PM,50.0,41.0,71,29.68,10.0,West,16.1,26.5,N/A,,Overcast,280,2012-10-19 18:35:00
1:55 PM,51.8,41.0,67,29.69,10.0,West,13.8,21.9,N/A,,Overcast,280,2012-10-19 18:55:00
2:15 PM,51.8,41.0,67,29.70,10.0,West,10.4,20.7,N/A,,Overcast,280,2012-10-19 19:15:00
2:35 PM,51.8,41.0,67,29.71,10.0,WNW,12.7,19.6,N/A,,Overcast,290,2012-10-19 19:35:00
2:55 PM,51.8,41.0,67,29.71,10.0,WNW,13.8,23.0,N/A,,Overcast,290,2012-10-19 19:55:00
3:15 PM,53.6,41.0,62,29.72,10.0,WNW,13.8,23.0,N/A,,Overcast,290,2012-10-19 20:15:00
3:35 PM,53.6,41.0,62,29.72,10.0,WNW,12.7,23.0,N/A,,Overcast,290,2012-10-19 20:35:00
3:55 PM,51.8,41.0,67,29.72,10.0,West,6.9,-,N/A,,Overcast,270,2012-10-19 20:55:00
4:15 PM,51.8,41.0,67,29.73,10.0,West,12.7,25.3,N/A,,Overcast,280,2012-10-19 21:15:00
4:35 PM,51.8,41.0,67,29.74,10.0,WNW,10.4,20.7,N/A,,Overcast,290,2012-10-19 21:35:00
4:55 PM,51.8,42.8,71,29.75,10.0,West,10.4,-,N/A,,Overcast,280,2012-10-19 21:55:00
5:15 PM,50.0,42.8,76,29.76,6.0,WNW,9.2,18.4,N/A,Rain,Light Rain,300,2012-10-19 22:15:00
5:35 PM,50.0,42.8,76,29.76,10.0,West,6.9,-,N/A,,Overcast,280,2012-10-19 22:35:00
5:55 PM,50.0,42.8,76,29.77,10.0,WNW,8.1,-,N/A,,Mostly Cloudy,290,2012-10-19 22:55:00
6:15 PM,50.0,44.6,82,29.78,4.0,West,10.4,-,N/A,Rain,Light Rain,280,2012-10-19 23:15:00
6:35 PM,48.2,46.4,93,29.78,4.0,West,5.8,-,N/A,,Mostly Cloudy,280,2012-10-19 23:35:00
6:55 PM,48.2,46.4,93,29.78,6.0,Calm,Calm,-,N/A,,Mostly Cloudy,0,2012-10-19 23:55:00
7:15 PM,48.2,46.4,93,29.79,10.0,WNW,5.8,-,N/A,,Mostly Cloudy,290,2012-10-20 00:15:00
7:35 PM,48.2,46.4,93,29.79,10.0,West,3.5,-,N/A,,Mostly Cloudy,270,2012-10-20 00:35:00
7:55 PM,48.2,44.6,87,29.79,10.0,Calm,Calm,-,N/A,,Overcast,0,2012-10-20 00:55:00
8:15 PM,48.2,44.6,87,29.80,10.0,West,3.5,-,N/A,,Overcast,260,2012-10-20 01:15:00
8:35 PM,48.2,44.6,87,29.79,10.0,West,3.5,-,N/A,,Overcast,270,2012-10-20 01:35:00
8:55 PM,48.2,44.6,87,29.79,10.0,West,3.5,-,N/A,,Overcast,270,2012-10-20 01:55:00
9:15 PM,48.2,42.8,82,29.79,10.0,West,4.6,-,N/A,,Overcast,270,2012-10-20 02:15:00
9:35 PM,48.2,42.8,82,29.80,10.0,West,4.6,-,N/A,,Overcast,280,2012-10-20 02:35:00
9:55 PM,48.2,44.6,87,29.80,10.0,WNW,5.8,-,N/A,,Overcast,290,2012-10-20 02:55:00
10:15 PM,48.2,42.8,82,29.80,10.0,Calm,Calm,-,N/A,,Overcast,0,2012-10-20 03:15:00
10:35 PM,48.2,44.6,87,29.80,10.0,Calm,Calm,-,N/A,,Overcast,0,2012-10-20 03:35:00
10:55 PM,48.2,44.6,87,29.80,10.0,Calm,Calm,-,N/A,,Overcast,0,2012-10-20 03:55:00
11:15 PM,48.2,44.6,87,29.80,10.0,WNW,3.5,-,N/A,,Overcast,290,2012-10-20 04:15:00
11:35 PM,48.2,44.6,87,29.80,10.0,Calm,Calm,-,N/A,,Overcast,0,2012-10-20 04:35:00
11:55 PM,48.2,44.6,87,29.80,10.0,Calm,Calm,-,N/A,,Overcast,0,2012-10-20 04:55:00